Regional Weather Roundup
Issued by NWS Portland, ME

Home | Current Version | Previous Version | Text Only | Print | Product List | Glossary On
Versions: 1 2 3 4 5 6 7 8 9 10 11 12 13 14 15 16 17 18 19 20 21 22 23 24 25 26 27 28 29 30 31 32 33 34 35 36 37 38 39 40 41 42 43 44 45 46 47 48 49 50
000
ASUS41 KGYX 230310
RWRGYX
WEATHER ROUNDUP FOR MAINE AND NEW HAMPSHIRE
NATIONAL WEATHER SERVICE GRAY ME
1100 PM EDT SUN OCT 22 2017

MEZ002-005-006-010-012-015-018-020-021-024-026-027-029-230400-
MAINE

CITY           SKY/WX    TMP DP  RH WIND       PRES   REMARKS
PORTLAND       CLOUDY    54  51  90 VRB3      30.43F
SANFORD        CLOUDY    53  52  96 CALM      30.42F
BAR HARBOR     MOCLDY    49  46  90 CALM      30.45F
WISCASSET      CLOUDY    54  48  80 CALM      30.44F
ROCKLAND       CLOUDY    55  53  93 E8        30.43F
FRYEBURG       NOT AVBL
LEWISTONAUBURN CLOUDY    52  49  89 CALM      30.44S
AUGUSTA        CLOUDY    50  48  93 S3        30.45S
WATERVILLE     CLOUDY    50  46  86 CALM      30.42S
BANGOR         MOCLDY    46  40  79 CALM      30.45S
GREENVILLE       N/A     45  37  73 SE9       30.39F
MILLINOCKET    CLEAR     42  38  85 CALM      30.45R
HOULTON        CLEAR     46  35  65 S5        30.42F
PRESQUE ISLE   CLEAR     44  31  60 SE6       30.42S
FRENCHVILLE    CLEAR     42  28  57 SE8       30.38F
CARIBOU        CLEAR     45  30  55 SE5       30.40S
$$

NHZ002-005-008-009-011-012-014-230400-
NEW HAMPSHIRE

CITY           SKY/WX    TMP DP  RH WIND       PRES   REMARKS
PORTSMOUTH     CLOUDY    55  52  91 CALM      30.40F
ROCHESTER      CLOUDY    53  50  89 CALM      30.41F
NASHUA         CLOUDY    56  53  90 S3        30.42F
MANCHESTER     CLOUDY    55  52  89 E3        30.41F
CONCORD        CLOUDY    53  51  93 CALM      30.42F
LACONIA        MOCLDY    49  48  97 CALM      30.43R
PLYMOUTH       FAIR      46  46  97 CALM      30.41F
BERLIN         CLOUDY    40  39  97 CALM      30.39R
WHITEFIELD     PTCLDY    43  41  93 CALM      30.37S
JAFFREY        CLEAR     49  49 100 CALM      30.41F
KEENE          PTCLDY    45  41  86 CALM      30.39F
LEBANON        CLEAR     50  48  93 CALM      30.36S
MT WASHINGTON  PTCLDY    45  28  53 SW23G35     N/A
$$

VTZ005-007-008-230400-
VERMONT

CITY           SKY/WX    TMP DP  RH WIND       PRES   REMARKS
ST JOHNSBURY     N/A     50  47  89 MISG      30.35S
BURLINGTON     PTCLDY    65  44  46 S7        30.28F
$$

MAZ007-012-024-CTZ003-RIZ002-NYZ038-NYZ072-230400-
SOUTHERN NEW ENGLAND AND NY

CITY           SKY/WX    TMP DP  RH WIND       PRES   REMARKS
BOSTON         CLOUDY    56  54  93 CALM      30.42S
WORCESTER      CLEAR     54  51  90 NE5       30.41F
NANTUCKET      FOG       55  55 100 S5        30.43S VSB 1/2
PROVIDENCE     PTCLDY    54  52  93 W3        30.41F
HARTFORD       PTCLDY    50  47  89 CALM      30.39S
ALBANY         MOCLDY    62  44  51 S10       30.34S
NEW YORK CITY  MOCLDY    64  56  75 S5        30.38R
$$

ANZ081-ANZ082-ANZ150-NHZ014-MEZ023>029-230400-
COASTAL MARINE OBSERVATIONS

STATION/POSITION TIME  TEMP    WIND        PRES    WAVE
                       AIR SEA DIR/SP/G            HT/PER
                 (UTC) (F)     (DEG/KT/KT) (MB)    (FT/S)
MOUNT DESERT ROC 0300   55     120/ 13/ 15 1030.9F
MATINICUS ROCK   0200   54     140/ 14/ 15 1030.0S
ISLE OF SHOALS   0200   54      10/  6/  6 1030.1R
JEFFREYS LEDGE   0206      58                N/A     2/11
GEORGES BANK BUO 0150   60 59              1031.0    2/ 8
$$

.............KEY..............
   WCI - WIND CHILL
   TC  - TEMPERATURE IN CELSIUS
   VSB - VISIBILITY IN MILES
   HX  - HEAT INDEX
   FAIR- INDICATES FEW OR NO CLOUDS BELOW 12,000 FT, WITH NO
         SIGNIFICANT WEATHER AND/OR OBSTRUCTIONS TO VISIBILITY.





USA.gov is the U.S. government's official web portal to all federal, state and local government web resources and services.